Weather observations for the past three days for
York, York Airport
Imperial (Metric)
Date Time (edt) Wind (mph) Vis. (mi.) Weather Sky Cond. Temperature (ºF) Relative Humidity Wind Chill (°F) Heat Index (°F) Pressure Precipitation (in)
Air Dwpt 6 hour altimeter (in) sea level (mb) 1 hr 3 hr 6 hr
Max. Min.
12 06:53 Calm 9.00 Fair CLR 66 63 90% 30.14 1020.4
12 05:53 Calm 8.00 Fair CLR 64.9 62.1 90% 30.13 1020.2
12 04:53 Calm 9.00 Fair CLR 63 61 93% 30.12 1019.9
12 03:53 Calm 9.00 Fair CLR 63 61 93% 30.1 1019.3
12 02:53 Calm 10.00 Fair CLR 64 62.1 93% 30.1 1019.1
12 01:53 Calm 10.00 Fair CLR 64 62.1 80.1 64 93% 30.11 1019.5
12 00:53 Calm 10.00 Fair CLR 64.9 62.1 90% 30.12 1019.7
11 23:53 Calm 10.00 Fair CLR 68 63 84% 30.11 1019.3
11 22:53 Calm 10.00 Fair CLR 68 63 84% 30.1 1018.9
11 21:53 Calm 10.00 Fair CLR 70 64 82% 30.09 1018.7
11 20:53 Calm 10.00 Fair CLR 73.9 64.9 74% 30.07 1018.2
11 19:53 NW 5 10.00 Fair CLR 80.1 63 82 80.1 56% 81 30.06 1017.7
11 18:53 NW 3 10.00 Overcast FEW047 OVC055 81 63 54% 82 30.05 1017.5
11 17:53 NW 6 10.00 Overcast OVC050 81 62.1 53% 82 30.04 1017.0
11 16:53 W 5 10.00 Overcast OVC049 81 62.1 53% 82 30.03 1016.7
11 15:53 Vrbl 7 10.00 Overcast OVC046 82 62.1 51% 83 30.02 1016.3
11 14:53 NW 9 G 17 10.00 Overcast OVC045 81 62.1 53% 82 30.01 1016.2
11 13:53 W 7 10.00 Overcast OVC045 81 62.1 81 75 53% 82 30.01 1015.8
11 12:53 W 9 10.00 Overcast OVC043 80.1 61 52% 81 30 1015.6
11 11:53 W 9 10.00 Overcast OVC043 79 61 54% 80 30 1015.5
11 10:53 W 8 G 16 10.00 Overcast OVC041 79 61 54% 80 29.98 1015.0
11 09:53 W 13 G 21 10.00 Overcast OVC041 77 60.1 56% 79 29.97 1014.7
11 08:53 Vrbl 7 10.00 Overcast OVC041 77 62.1 60% 79 29.96 1014.2
11 07:53 SW 6 10.00 Overcast OVC040 75 61 77 70 62% 77 29.95 1013.7
11 06:53 Vrbl 5 10.00 Overcast OVC041 73.9 60.1 62% 29.93 1013.1
11 05:53 SW 5 10.00 Mostly Cloudy BKN045 72 60.1 66% 29.91 1012.6
11 04:53 Calm 10.00 Fair CLR 71.1 60.1 68% 29.89 1011.8
11 03:53 W 3 10.00 Fair CLR 71.1 60.1 68% 29.87 1011.1
11 02:53 Calm 10.00 Fair CLR 75 60.1 60% 77 29.86 1010.7
11 01:53 W 6 10.00 Fair CLR 77 60.1 87.1 77 56% 79 29.85 1010.5
11 00:53 W 13 G 20 10.00 Mostly Cloudy BKN070 80.1 61 52% 81 29.83 1009.8
10 23:53 W 7 G 16 10.00 A Few Clouds FEW060 81 66 61% 83 29.8 1008.8
10 22:53 W 8 10.00 Mostly Cloudy BKN075 84 69.1 61% 88 29.8 1008.6
10 21:53 SW 8 10.00 Partly Cloudy FEW045 SCT060 84.9 73.9 70% 92 29.76 1007.4
10 20:53 S 8 G 17 10.00 A Few Clouds FEW070 FEW110 84.9 75.9 75% 94 29.73 1006.6
10 19:53 S 8 10.00 Fair CLR 87.1 75.9 95 87.1 70% 98 29.71 1005.6
10 18:53 Vrbl 5 G 22 10.00 Fair CLR 90 75 62% 100 29.71 1005.6
10 17:53 S 9 G 23 10.00 Fair CLR 90 75.9 63% 102 29.71 1005.6
10 16:53 S 10 G 24 10.00 Partly Cloudy FEW038 SCT046 SCT060 91 75.9 61% 103 29.71 1005.8
10 15:53 Calm 10.00 NULL NULL 91 75 59% 102 29.73 1006.5
10 14:53 S 9 G 18 10.00 Mostly Cloudy SCT045 BKN055 BKN070 91.9 75.9 60% 104 29.76 1007.3
10 13:53 Calm 0.00 NULL NULL 93.9 75 93.9 82 54% 106 29.77 1007.7
10 12:53 S 9 G 22 10.00 A Few Clouds FEW041 93 73 52% 102 29.79 1008.4
10 11:53 Vrbl 7 G 25 10.00 Partly Cloudy SCT038 SCT045 91.9 75 58% 103 29.81 1009.2
10 10:53 Calm 10.00 Fair CLR 89.1 75 63% 99 29.83 1009.8
10 09:53 SE 10 G 20 10.00 Fair CLR 87.1 75.9 70% 98 29.84 1010.2
10 08:53 Vrbl 6 10.00 Fair CLR 84 75 74% 92 29.85 1010.5
10 07:53 Vrbl 6 10.00 Fair CLR 82 75.9 82 79 82% 89 29.86 1010.8
10 06:53 Vrbl 5 10.00 Fair CLR 80.1 75 85% 85 29.85 1010.6
10 05:53 Vrbl 5 10.00 Fair CLR 79 75 88% 83 29.85 1010.4
10 04:53 Vrbl 6 10.00 Fair CLR 79 75 88% 83 29.86 1010.6
10 03:53 Vrbl 3 9.00 Fair CLR 80.1 75 85% 85 29.86 1010.8
10 02:53 Vrbl 3 10.00 Fair CLR 80.1 75 85% 85 29.87 1011.2
10 01:53 Vrbl 3 10.00 Fair CLR 81 73.9 86 81 79% 86 29.89 1011.7
10 00:53 Vrbl 3 10.00 Fair CLR 81 73.9 79% 86 29.89 1011.8
09 23:53 Vrbl 3 10.00 Fair CLR 82 73 74% 87 29.9 1012.2
09 22:53 S 5 10.00 Fair CLR 82.9 73 72% 89 29.91 1012.5
09 21:53 S 3 10.00 Fair CLR 82.9 71.1 67% 88 29.91 1012.6
09 20:53 S 3 10.00 Fair CLR 84.9 70 61% 89 29.91 1012.4
09 19:53 Vrbl 3 10.00 Fair CLR 86 71.1 97 86 61% 92 29.9 1012.3
09 18:53 Vrbl 5 10.00 Fair CLR 87.1 69.1 55% 91 29.9 1012.0
09 17:53 S 9 G 20 10.00 Mostly Cloudy BKN060 BKN080 88 70 55% 93 29.91 1012.6
09 16:53 Vrbl 3 10.00 A Few Clouds FEW110 93.9 70 46% 100 29.91 1012.4
09 15:53 SE 9 10.00 Fair CLR 96.1 72 46% 105 29.91 1012.7
09 14:53 Calm 10.00 A Few Clouds FEW065 93.9 69.1 44% 99 29.93 1013.4
09 13:53 SW 9 10.00 A Few Clouds FEW055 93.9 70 96.1 80.1 46% 100 29.95 1013.7
09 12:53 SE 6 10.00 Fair CLR 95 69.1 43% 101 29.96 1014.0
09 11:53 Vrbl 5 10.00 Partly Cloudy FEW038 SCT047 91.9 73 54% 101 29.97 1014.6
09 10:53 NE 3 10.00 Fair CLR 90 75.9 63% 102 29.98 1014.9
09 09:53 Calm 10.00 Fair CLR 86 75 70% 95 29.99 1015.2
09 08:53 Calm 10.00 Fair CLR 82 73.9 77% 88 30 1015.5
09 07:53 Calm 10.00 Fair CLR 80.1 73.9 80.1 73.9 82% 85 29.99 1015.3
Date Time (edt) Wind (mph) Vis. (mi.) Weather Sky Cond. Air Dwpt Max. Min. Relative Humidity Wind Chill (°F) Heat Index (°F) altimeter (in) sea level (mb) 1 hr 3 hr 6 hr
6 hour
Temperature (ºF) Pressure Precipitation (in)